Starlink 6275

operational
NORAD ID: 56772 Int'l Des: 2023-078 Owner: SPXS Country: US Constellation: starlink
LEOCIRCULAR

Starlink 6275について

説明を読み込み中...

リアルタイム位置

3D地球を読み込み中...

次回通過

高度履歴

Altitude vs Time

uPlot chart will show altitude changes over time

軌道要素

1 56772U 23078F 25259.95316959 -.00000012 00000-0 67635-5 0 9993
2 56772 69.9987 82.4866 0002935 269.1284 90.9539 14.98331697126164
Epoch: Sep 16, 2025 • Age: 27 hours

現在のステータス

高度 582.7 km
速度 7.57 km/s
衛星直下点 -33.03°S, 105.96°W
打ち上げ日 May 31, 2023
運用期間 2.2 years
タイプ internet

技術仕様

分類 Payload
質量 305.00 kg
乾燥質量 290.00 kg
総質量 305.00 kg
長さ 0.20 m
直径 2.80 m
スパン 9.00 m
形状 Box + pan
製造者 SPXS
バスタイプ Starlink
フェーズステータス In Orbit
所有者/国 SPXS/US

大規模コンステレーション

Loading constellations...